Flight Track Log - Related Links

Times and Time Zones

All times are in EDT time to prevent confusion due to time zone crossing. See the ASQ4209 flight status page for this flight to view local times or setup timezone preferences in your user account.

Time Position Orientation Groundspeed Altitude Reporting Facility
EDT Latitude Longitude Course Direction KTS MPH feet Rate Location/Type
08:45AM 41.4214 -81.8375 90° East 169 194 2,400  Level Cleveland Center
08:46AM 41.4489 -81.8158 31° Northeast 206 237 3,400 2,831 Climbing Cleveland Center
08:47AM 41.5014 -81.7753 30° Northeast 242 278 6,600 3,350 Climbing Cleveland Center
08:48AM 41.6579 -81.5922 37° Northeast  Level FlightAware Approximate
08:48AM 41.5644 -81.7264 30° Northeast 253 291 10,100  Level Cleveland Center
08:49AM 41.7446 -81.5055 37° Northeast  Level FlightAware Approximate
08:49AM 41.6358 -81.6667 32° Northeast 272 313 11,800  Level Cleveland Center
08:50AM 41.8313 -81.4187 37° Northeast  Level FlightAware Approximate
08:50AM 41.7056 -81.5817 42° Northeast 315 362 13,700  Level Cleveland Center
08:51AM 41.8500 -81.2778 90° East  Level FlightAware Approximate
08:51AM 41.7792 -81.4936 42° Northeast 346 398 15,800  Level Cleveland Center
08:52AM 41.8403 -81.3997 49° Northeast 357 411 17,500 1,500 Climbing Cleveland Center
08:53AM 41.8642 -81.2578 77° East 370 426 18,800 1,450 Climbing Cleveland Center
08:54AM 41.8878 -81.1131 78° East 385 443 20,400 1,550 Climbing Cleveland Center
08:55AM 41.9114 -80.9653 78° East 401 461 21,900 1,550 Climbing Cleveland Center
08:56AM 41.9347 -80.8147 78° East 408 470 23,500 1,450 Climbing Cleveland Center
08:57AM 41.9619 -80.6531 77° East 413 475 24,800 1,300 Climbing Cleveland Center
08:58AM 41.9850 -80.4939 79° East 413 475 26,100 1,350 Climbing Cleveland Center
08:59AM 42.0097 -80.3400 78° East 413 475 27,500 1,450 Climbing Cleveland Center
09:00AM 42.0322 -80.1861 79° East 413 475 29,000 1,450 Climbing Cleveland Center
09:01AM 42.0525 -80.0350 80° East 413 475 30,400 1,000 Climbing Cleveland Center
09:02AM 42.0744 -79.8811 79° East 413 475 31,000 300 Climbing Cleveland Center
09:03AM 42.0964 -79.7186 80° East 419 482 31,000  Level Cleveland Center
09:04AM 42.1200 -79.5531 79° East 432 497 31,000  Level Cleveland Center
09:05AM 42.1414 -79.3903 80° East 439 505 31,000  Level Cleveland Center
09:06AM 42.1628 -79.2358 79° East 432 497 31,000  Level Cleveland Center
09:07AM 42.1817 -79.0869 80° East 418 481 31,000  Level Cleveland Center
09:08AM 42.2006 -78.9378 80° East 404 465 31,000  Level Cleveland Center
09:09AM 42.2211 -78.7917 79° East 404 465 31,000  Level Cleveland Center
09:10AM 42.2417 -78.6339 80° East 404 465 31,000  Level Cleveland Center
09:11AM 42.2617 -78.4761 80° East 419 482 31,000  Level Cleveland Center
09:12AM 42.2817 -78.3211 80° East 419 482 31,000  Level Cleveland Center
09:13AM 42.3014 -78.1661 80° East 424 488 31,000  Level Cleveland Center
09:14AM 42.3211 -78.0081 80° East 424 488 31,000  Level Cleveland Center
09:15AM 42.3361 -77.8556 82° East 419 482 31,000  Level Cleveland Center
09:16AM 42.3575 -77.7003 79° East 419 482 31,000  Level Cleveland Center
09:17AM 42.3744 -77.5475 81° East 414 476 31,000  Level Cleveland Center
09:18AM 42.3931 -77.3892 81° East 414 476 31,000  Level Cleveland Center
09:19AM 42.4094 -77.2281 82° East 414 476 31,000  Level Cleveland Center
09:21AM 42.4456 -76.9144 81° East 447 514 31,000  Level Boston Center
09:22AM 42.4619 -76.7636 82° East 431 496 31,000  Level Boston Center
09:23AM 42.4778 -76.6156 82° East 412 474 31,000  Level Boston Center
09:24AM 42.4936 -76.4672 82° East 399 459 31,000 -50 Level Boston Center
09:25AM 42.5092 -76.3217 82° East 394 453 30,900 -500 Descending Boston Center
09:26AM 42.5239 -76.1900 81° East 394 453 30,000 -900 Descending Boston Center
09:27AM 42.5392 -76.0472 82° East 389 448 29,100 -1,450 Descending Boston Center
09:28AM 42.5536 -75.9128 82° East 377 434 27,100 -2,000 Descending Boston Center
09:29AM 42.5617 -75.7836 85° East 360 414 25,100 -1,950 Descending Boston Center
09:30AM 42.5592 -75.6536 91° East 350 403 23,200 -1,750 Descending Boston Center
09:31AM 42.5564 -75.5267 92° East 344 396 21,600 -1,800 Descending Boston Center
09:32AM 42.5494 -75.3939 94° East 331 381 19,600 -1,850 Descending Boston Center
09:33AM 42.5381 -75.2750 97° East 325 374 17,900 -1,700 Descending Boston Center
09:34AM 42.5308 -75.1450 94° East 330 380 16,200 -1,700 Descending Boston Center
09:35AM 42.5211 -75.0206 96° East 330 380 14,500 -1,700 Descending Boston Center
09:36AM 42.5114 -74.8933 96° East 330 380 12,800 -1,450 Descending Boston Center
09:37AM 42.5014 -74.7719 96° East 346 398 11,600 -919 Descending Boston Center
09:38AM 42.4933 -74.6589 95° East 315 362 11,100 -324 Descending Boston Center
09:39AM 42.4831 -74.5431 97° East 311 358 11,000 -298 Descending Boston Center
09:40AM 42.4892 -74.4419 85° East 257 296 10,500 -1,190 Descending Boston Center
09:41AM 42.5033 -74.3439 79° East 245 282 8,600 -1,983 Descending Boston Center
09:42AM 42.5194 -74.2514 77° East 259 298 6,500 -1,875 Descending Boston Center
09:43AM 42.5603 -74.1736 55° Northeast 240 276 4,600 -1,339 Descending Boston Center
09:44AM 42.5989 -74.1014 54° Northeast 234 269 3,800 -574 Descending Boston Center
09:45AM 42.6353 -74.0261 57° Northeast 228 262 3,500 -148 Descending Boston Center
09:46AM 42.6572 -73.9506 68° East 234 269 3,500 -99 Level Boston Center
09:47AM 42.6667 -73.8633 82° East 233 268 3,300 -545 Descending Boston Center
09:48AM 42.6717 -73.7814 85° East 222 255 2,400 -541 Descending Boston Center
09:49AM 42.6975 -73.7228 59° Northeast 187 215 2,200 -347 Descending Boston Center
09:50AM 42.7369 -73.7236 359° North 110 127 1,700 -645 Descending Boston Center
09:51AM 42.7492 -73.7606 294° West 112 129 900 -787 Descending Boston Center
09:53AM 42.7333 -73.8000 270° West  Level FlightAware Approximate

Login

Don't have an account? Register now (free) for customized features, flight alerts, and more!